sat.trackr.live / text

‹ back to catalog

STARLINK-3055

NORAD 49137 · 2021-082H

PAYLOAD ACTIVE UNKNOWN

§ Identity

Operator
Country
US
Launch date
2021-09-14
Launch site
AFWTR
Launch vehicle
Mass (kg)
RCS (m²)

Purposes: comms

External: N2YO · Heavens-Above · Gunter

§ Orbital elements

Epoch: 2026-05-25T02:17:03.327360Z

Period
96.16 min
Inclination
70.0001°
Eccentricity
0.0003002
Mean motion
14.97521155 rev/d
Perigee alt
572.5 km
Apogee alt
576.6 km
Semi-major
6,952.7 km
B*
-8.5614e-5
RAAN
82.8409°
Arg perigee
264.3085°
Mean anomaly
95.7731°
Rev number
25,789

§ Raw data

STARLINK-30551 49137U 21082H   26145.09517740 -.00001093  00000+0 -85614-4 0  99902 49137  70.0001  82.8409 0003002 264.3085  95.7731 14.97521155257891

JSON: /api/v1/satellites/49137 · /tle

For live sub-satellite position, see the globe view (requires WebGL).

§ Visibility from observer

Set your observer location to see the next 7 days of passes ≥ 10°. The values pass through the URL so the page stays shareable.

No JS? Fill the form by hand. The geolocation button needs JavaScript.